EW1644 Weather Reports


time (UTC)temp
C
wind
direction
speed
KPH
gust
KPH
rain 1hr
cm
rain 24hr
cm
rain mn
cm
humidity
%
barometer
mb
20260906224601 22 300 0.0 0.0 0.00 0.00 0.00 27 1006.6
20260906223050 22 345 0.0 0.0 0.00 0.00 0.00 25 1006.6
20260906221549 23 334 0.0 0.0 0.00 0.00 0.00 24 1006.6
20260906220048 23 44 0.0 0.0 0.00 0.00 0.00 24 1006.7
20260906214547 24 4 0.0 0.0 0.00 0.00 0.00 24 1006.8
20260906213042 24 291 0.0 0.0 0.00 0.00 0.00 23 1007.3
20260906211546 23 59 0.0 0.0 0.00 0.00 0.00 24 1007.4
20260906210049 24 348 0.0 0.0 0.00 0.00 0.00 23 1007.7
20260906204536 23 347 0.0 0.0 0.00 0.00 0.00 23 1007.8
20260906203031 23 55 0.0 0.0 0.00 0.00 0.00 24 1007.5
20260906201528 23 346 0.0 0.0 0.00 0.00 0.00 22 1008.3
20260906200026 23 53 0.0 0.0 0.00 0.00 0.00 21 1008.7
20260906194520 23 301 0.0 0.0 0.00 0.00 0.00 21 1008.8
20260906193017 22 22 0.0 0.0 0.00 0.00 0.00 22 1009.1
20260906191515 22 354 0.0 0.0 0.00 0.00 0.00 25 1009.1
20260906190017 22 342 0.0 0.0 0.00 0.00 0.00 26 1009.4
20260906184510 21 337 0.0 0.0 0.00 0.00 0.00 29 1009.6
20260906183011 20 298 0.0 0.0 0.00 0.00 0.00 30 1009.7
20260906181522 21 331 0.0 0.0 0.00 0.00 0.00 29 1009.8
20260906180006 22 356 0.0 0.0 0.00 0.00 0.00 28 1010.0
20260906174502 20 302 0.0 0.0 0.00 0.00 0.00 31 1010.2
20260906173105 19 295 0.0 0.0 0.00 0.00 0.00 34 1010.6
20260906171600 18 298 0.0 0.0 0.00 0.00 0.00 34 1010.7
20260906170058 18 343 0.0 0.0 0.00 0.00 0.00 35 1011.0
20260906164551 17 304 0.0 0.0 0.00 0.00 0.00 41 1011.1
20260906163048 16 3 0.0 0.0 0.00 0.00 0.00 43 1011.4
20260906161544 15 332 0.0 0.0 0.00 0.00 0.00 46 1011.6
20260906160043 14 356 0.0 0.0 0.00 0.00 0.00 47 1011.8
20260906154545 13 348 0.0 0.0 0.00 0.00 0.00 56 1011.8
20260906153037 11 347 0.0 0.0 0.00 0.00 0.00 62 1011.9
20260906151528 10 44 0.0 0.0 0.00 0.00 0.00 69 1012.0
20260906150026 10 44 0.0 0.0 0.00 0.00 0.00 69 1012.0
20260906144526 10 44 0.0 0.0 0.00 0.00 0.00 66 1012.0
20260906143032 10 34 0.0 0.0 0.00 0.00 0.00 64 1011.9
20260906141524 10 34 0.0 0.0 0.00 0.00 0.00 64 1011.8
20260906140038 9 58 0.0 0.0 0.00 0.00 0.00 70 1011.9
20260906134518 8 58 0.0 0.0 0.00 0.00 0.00 71 1011.6
20260906133016 7 58 0.0 0.0 0.00 0.00 0.00 74 1011.5
20260906131517 7 59 0.0 0.0 0.00 0.00 0.00 75 1011.1
20260906130030 7 66 0.0 0.0 0.00 0.00 0.00 74 1010.7
20260906124516 7 66 0.0 0.0 0.00 0.00 0.00 74 1010.6
20260906123015 7 66 0.0 0.0 0.00 0.00 0.00 74 1010.6
20260906121510 6 66 0.0 0.0 0.00 0.00 0.00 76 1010.5
20260906120010 6 66 0.0 0.0 0.00 0.00 0.00 75 1010.6
20260906114508 6 66 0.0 0.0 0.00 0.00 0.00 75 1010.8
20260906113005 7 66 0.0 0.0 0.00 0.00 0.00 73 1011.0
20260906111506 7 67 0.0 0.0 0.00 0.00 0.00 72 1010.9
20260906110011 7 66 0.0 0.0 0.00 0.00 0.00 72 1010.9
20260906104505 7 67 0.0 0.0 0.00 0.00 0.00 73 1010.9
20260906103100 7 66 0.0 0.0 0.00 0.00 0.00 73 1010.7
20260906101557 7 66 0.0 0.0 0.00 0.00 0.00 72 1010.7
20260906100055 7 66 0.0 0.0 0.00 0.00 0.00 71 1010.6
20260906094554 8 66 0.0 0.0 0.00 0.00 0.00 71 1010.5
20260906093101 8 66 0.0 0.0 0.00 0.00 0.00 69 1010.3
20260906091549 8 66 0.0 0.0 0.00 0.00 0.00 67 1010.0
20260906090044 8 65 0.0 0.0 0.00 0.00 0.00 68 1009.7
20260906084556 8 65 0.0 0.0 0.00 0.00 0.00 67 1010.8
20260906083054 9 65 0.0 0.0 0.00 0.00 0.00 66 1010.8
20260906081555 8 65 0.0 0.0 0.00 0.00 0.00 66 1010.8
20260906080052 9 65 0.0 0.0 0.00 0.00 0.00 65 1010.7
20260906074549 9 65 0.0 0.0 0.00 0.00 0.00 64 1010.7
20260906073045 10 65 0.0 0.0 0.00 0.00 0.00 63 1010.8
20260906071556 10 64 0.0 0.0 0.00 0.00 0.00 62 1010.8
20260906070043 11 65 0.0 0.0 0.00 0.00 0.00 60 1010.7
20260906064542 10 65 0.0 0.0 0.00 0.00 0.00 60 1010.8
20260906063036 11 64 0.0 0.0 0.00 0.00 0.00 58 1011.0
20260906061534 11 64 0.0 0.0 0.00 0.00 0.00 57 1010.7
20260906060031 12 64 0.0 0.0 0.00 0.00 0.00 56 1010.7
20260906054531 12 64 0.0 0.0 0.00 0.00 0.00 55 1010.7
20260906053036 12 64 0.0 0.0 0.00 0.00 0.00 54 1010.5
20260906051533 12 64 0.0 0.0 0.00 0.00 0.00 53 1010.4
20260906050049 12 64 0.0 0.0 0.00 0.00 0.00 53 1010.4
20260906044529 12 64 0.0 0.0 0.00 0.00 0.00 53 1010.4
20260906043028 12 64 0.0 0.0 0.00 0.00 0.00 52 1010.5
20260906041528 13 64 0.0 0.0 0.00 0.00 0.00 50 1010.6
20260906040027 13 65 0.0 0.0 0.00 0.00 0.00 49 1010.4
20260906034537 13 56 0.0 0.0 0.00 0.00 0.00 49 1010.4
20260906033028 13 53 0.0 0.0 0.00 0.00 0.00 48 1010.4
20260906031528 14 53 0.0 0.0 0.00 0.00 0.00 47 1010.2
20260906030024 14 53 0.0 0.0 0.00 0.00 0.00 46 1009.8
20260906024524 15 53 0.0 0.0 0.00 0.00 0.00 45 1009.4
20260906023026 15 53 0.0 0.0 0.00 0.00 0.00 43 1009.3
20260906021523 16 53 0.0 0.0 0.00 0.00 0.00 42 1009.0
20260906020022 16 53 0.0 0.0 0.00 0.00 0.00 40 1008.8
20260906014524 17 40 0.0 0.0 0.00 0.00 0.00 37 1008.7
20260906013021 18 60 0.0 0.0 0.00 0.00 0.00 36 1008.7
20260906011521 18 72 0.0 0.0 0.00 0.00 0.00 33 1008.5
20260906010021 19 57 0.0 0.0 0.00 0.00 0.00 32 1008.4
20260906004522 20 30 0.0 0.0 0.00 0.00 0.00 32 1008.4
20260906003020 20 351 0.0 0.0 0.00 0.00 0.00 31 1008.2
20260906001519 21 108 0.0 0.0 0.00 0.00 0.00 30 1008.2
20260906000019 21 2 0.0 0.0 0.00 0.00 0.00 29 1007.8
20260905234518 21 31 0.0 0.0 0.00 0.00 0.00 28 1008.0
20260905233025 22 335 0.0 0.0 0.00 0.00 0.00 26 1007.9
20260905231517 23 342 0.0 0.0 0.00 0.00 0.00 25 1007.8
20260905230014 24 53 0.0 0.0 0.00 0.00 0.00 23 1008.0